Location: Gleizolles
(44.4833°N, 6.7667°E)
Time: 17:14:49
(UTC+00:00)

Altair - Pass Details

Date: 03 July 2024
Orbit: 1502 x 1681 km, 47.2° (Epoch: 13 July)

Event Time Altitude Azimuth Distance (km) Brightness Sun altitude
Rises 22:21:04 0° 235° (SW) 4,638 9.9 -20.4°
Reaches altitude 10° 22:24:05 10° 233° (SW) 3,651 9.3 -20.6°
Maximum altitude 22:33:10 72° 152° (SSE) 1,570 7.3 -21.1°
Drops below altitude 10° 22:42:23 10° 70° (ENE) 3,697 9.6 -21.5°
Sets 22:45:28 0° 69° (ENE) 4,699 10.2 -21.6°
